TimeCDT,TemperatureF,Dew PointF,Humidity,Sea Level PressureIn,VisibilityMPH,Wind Direction,Wind SpeedMPH,Gust SpeedMPH,PrecipitationIn,Events,Conditions,WindDirDegrees,DateUTC
12:15 AM,60.8,49.5,66,30.06,10.0,East,3.5,-,N/A,,Clear,90,2013-04-21 05:15:00
12:35 AM,61.2,50.2,67,30.06,10.0,East,4.6,-,N/A,,Clear,100,2013-04-21 05:35:00
12:55 AM,61.2,50.2,67,30.06,10.0,East,3.5,-,N/A,,Clear,90,2013-04-21 05:55:00
1:15 AM,60.8,50.2,68,30.05,10.0,ESE,3.5,-,N/A,,Clear,120,2013-04-21 06:15:00
1:35 AM,61.0,50.4,68,30.04,10.0,SE,5.8,-,N/A,,Mostly Cloudy,140,2013-04-21 06:35:00
4:15 AM,62.1,53.6,74,29.98,10.0,SE,8.1,-,N/A,,Clear,130,2013-04-21 09:15:00
4:35 AM,62.1,53.6,74,29.99,10.0,SE,5.8,-,N/A,,Clear,130,2013-04-21 09:35:00
4:55 AM,61.7,53.6,75,30.00,10.0,ESE,3.5,-,N/A,,Scattered Clouds,120,2013-04-21 09:55:00
5:15 AM,62.4,53.8,73,30.00,10.0,East,3.5,-,N/A,,Mostly Cloudy,90,2013-04-21 10:15:00
5:35 AM,61.0,53.6,77,30.01,10.0,ENE,3.5,-,N/A,,Mostly Cloudy,70,2013-04-21 10:35:00
5:55 AM,59.9,53.6,80,30.01,10.0,ENE,3.5,-,N/A,,Scattered Clouds,60,2013-04-21 10:55:00
6:15 AM,59.5,53.6,81,30.01,10.0,Calm,Calm,-,N/A,,Scattered Clouds,0,2013-04-21 11:15:00
6:35 AM,59.0,53.6,82,30.01,10.0,Calm,Calm,-,N/A,,Scattered Clouds,0,2013-04-21 11:35:00
6:55 AM,59.2,53.2,81,30.02,10.0,East,3.5,-,N/A,,Scattered Clouds,80,2013-04-21 11:55:00
7:15 AM,58.1,52.7,82,30.02,10.0,ENE,3.5,-,N/A,,Scattered Clouds,70,2013-04-21 12:15:00
7:35 AM,59.0,52.9,80,30.03,10.0,East,3.5,-,N/A,,Clear,90,2013-04-21 12:35:00
7:55 AM,61.2,54.0,77,30.04,10.0,Calm,Calm,-,N/A,,Clear,0,2013-04-21 12:55:00
8:15 AM,63.7,55.0,73,30.04,10.0,East,5.8,-,N/A,,Clear,90,2013-04-21 13:15:00
8:35 AM,66.2,55.8,69,30.05,10.0,East,6.9,-,N/A,,Clear,100,2013-04-21 13:35:00
8:55 AM,69.1,56.5,64,30.07,10.0,ESE,4.6,-,N/A,,Clear,110,2013-04-21 13:55:00
9:15 AM,72.0,57.2,60,30.07,10.0,ESE,8.1,-,N/A,,Clear,110,2013-04-21 14:15:00
9:35 AM,73.4,56.8,56,30.07,10.0,ESE,4.6,-,N/A,,Clear,120,2013-04-21 14:35:00
9:55 AM,74.7,55.9,52,30.07,10.0,SSE,8.1,-,N/A,,Scattered Clouds,150,2013-04-21 14:55:00
10:15 AM,75.0,55.6,51,30.08,10.0,SE,4.6,-,N/A,,Scattered Clouds,130,2013-04-21 15:15:00
10:35 AM,75.6,55.6,50,30.08,10.0,SE,9.2,-,N/A,,Scattered Clouds,130,2013-04-21 15:35:00
10:55 AM,76.6,54.9,47,30.08,10.0,North,-9999.0,-,N/A,,Scattered Clouds,0,2013-04-21 15:55:00
11:15 AM,78.6,53.6,42,30.08,10.0,ESE,8.1,-,N/A,,Scattered Clouds,110,2013-04-21 16:15:00
11:35 AM,79.0,53.4,41,30.07,10.0,SE,6.9,-,N/A,,Clear,130,2013-04-21 16:35:00
11:55 AM,79.7,54.0,41,30.07,10.0,ESE,9.2,-,N/A,,Clear,120,2013-04-21 16:55:00
12:15 PM,80.6,52.7,38,30.06,10.0,East,8.1,-,N/A,,Clear,100,2013-04-21 17:15:00
12:35 PM,81.7,50.7,34,30.06,10.0,SE,6.9,-,N/A,,Clear,130,2013-04-21 17:35:00
12:55 PM,82.2,51.3,34,30.05,10.0,Calm,Calm,-,N/A,,Clear,0,2013-04-21 17:55:00
1:15 PM,83.5,51.1,32,30.04,10.0,SSE,6.9,-,N/A,,Clear,160,2013-04-21 18:15:00
1:35 PM,83.8,51.8,33,30.03,10.0,SSE,6.9,-,N/A,,Clear,150,2013-04-21 18:35:00
1:55 PM,85.1,51.8,32,30.02,10.0,East,5.8,-,N/A,,Clear,100,2013-04-21 18:55:00
2:15 PM,85.1,51.8,32,30.01,10.0,ESE,8.1,-,N/A,,Clear,110,2013-04-21 19:15:00
2:35 PM,86.4,52.3,31,30.00,10.0,ENE,4.6,-,N/A,,Clear,60,2013-04-21 19:35:00
2:55 PM,85.1,52.9,33,29.99,10.0,SE,4.6,-,N/A,,Scattered Clouds,130,2013-04-21 19:55:00
3:15 PM,87.4,52.9,31,29.99,10.0,SSE,9.2,-,N/A,,Mostly Cloudy,150,2013-04-21 20:15:00
3:35 PM,86.5,53.6,32,29.98,10.0,East,8.1,-,N/A,,Scattered Clouds,90,2013-04-21 20:35:00
3:55 PM,87.6,54.3,32,29.97,10.0,ESE,4.6,-,N/A,,Scattered Clouds,120,2013-04-21 20:55:00
4:15 PM,84.9,54.5,35,29.96,10.0,ESE,9.2,21.9,N/A,,Clear,120,2013-04-21 21:15:00
4:35 PM,86.7,54.3,33,29.96,10.0,ESE,12.7,-,N/A,,Clear,120,2013-04-21 21:35:00
4:55 PM,85.5,54.7,35,29.96,10.0,ESE,13.8,20.7,N/A,,Scattered Clouds,110,2013-04-21 21:55:00
5:15 PM,84.7,55.2,36,29.96,10.0,East,10.4,17.3,N/A,,Clear,100,2013-04-21 22:15:00
5:35 PM,83.7,55.4,38,29.96,10.0,ESE,12.7,18.4,N/A,,Clear,110,2013-04-21 22:35:00
5:55 PM,82.0,56.3,41,29.96,10.0,East,11.5,21.9,N/A,,Clear,100,2013-04-21 22:55:00
6:15 PM,80.8,57.2,44,29.96,10.0,East,12.7,20.7,N/A,,Clear,100,2013-04-21 23:15:00
6:35 PM,79.5,57.6,47,29.97,10.0,ESE,12.7,-,N/A,,Clear,110,2013-04-21 23:35:00
6:55 PM,79.3,58.1,48,29.97,10.0,East,11.5,20.7,N/A,,Clear,90,2013-04-21 23:55:00
7:15 PM,77.5,58.6,52,29.98,10.0,ESE,15.0,19.6,N/A,,Clear,110,2013-04-22 00:15:00
7:35 PM,76.1,59.0,55,29.98,10.0,East,11.5,19.6,N/A,,Clear,100,2013-04-22 00:35:00
7:55 PM,74.7,59.4,59,29.99,10.0,East,9.2,17.3,N/A,,Clear,100,2013-04-22 00:55:00
8:15 PM,73.4,59.9,63,30.00,10.0,East,12.7,19.6,N/A,,Clear,100,2013-04-22 01:15:00
8:35 PM,72.5,60.3,65,30.01,10.0,East,10.4,16.1,N/A,,Clear,100,2013-04-22 01:35:00
8:55 PM,72.0,60.4,67,30.02,10.0,East,9.2,19.6,N/A,,Clear,100,2013-04-22 01:55:00
9:15 PM,71.2,60.8,69,30.03,10.0,East,11.5,18.4,N/A,,Clear,100,2013-04-22 02:15:00
9:35 PM,70.9,61.0,71,30.04,10.0,East,13.8,18.4,N/A,,Clear,100,2013-04-22 02:35:00
9:55 PM,70.7,61.2,72,30.04,10.0,ESE,9.2,17.3,N/A,,Clear,110,2013-04-22 02:55:00
10:15 PM,70.3,61.7,74,30.05,10.0,ESE,10.4,16.1,N/A,,Clear,110,2013-04-22 03:15:00
10:35 PM,69.8,61.7,75,30.05,10.0,East,8.1,-,N/A,,Clear,100,2013-04-22 03:35:00
10:55 PM,69.4,61.7,76,30.06,10.0,East,5.8,-,N/A,,Clear,100,2013-04-22 03:55:00
11:15 PM,69.3,61.9,77,30.06,10.0,East,5.8,-,N/A,,Clear,100,2013-04-22 04:15:00
11:35 PM,69.3,62.2,78,30.06,10.0,East,5.8,-,N/A,,Clear,100,2013-04-22 04:35:00
11:55 PM,69.1,62.6,80,30.06,10.0,East,6.9,-,N/A,,Clear,100,2013-04-22 04:55:00